TimeEDT,TemperatureF,Dew PointF,Humidity,Sea Level PressureIn,VisibilityMPH,Wind Direction,Wind SpeedMPH,Gust SpeedMPH,PrecipitationIn,Events,Conditions,WindDirDegrees,DateUTC
12:56 AM,52.0,48.9,89,30.12,10.0,West,3.5,-,N/A,,Clear,280,2013-09-07 04:56:00
1:56 AM,52.0,48.0,86,30.12,10.0,West,3.5,-,N/A,,Clear,270,2013-09-07 05:56:00
2:56 AM,55.0,46.0,72,30.12,10.0,West,4.6,-,N/A,,Clear,280,2013-09-07 06:56:00
3:56 AM,53.1,45.0,74,30.12,10.0,West,4.6,-,N/A,,Clear,280,2013-09-07 07:56:00
4:56 AM,53.1,44.1,71,30.11,10.0,WNW,4.6,-,N/A,,Clear,300,2013-09-07 08:56:00
5:56 AM,51.1,45.0,80,30.11,10.0,WNW,5.8,-,N/A,,Clear,290,2013-09-07 09:56:00
6:56 AM,54.0,46.0,75,30.10,10.0,WNW,4.6,-,N/A,,Clear,290,2013-09-07 10:56:00
7:56 AM,57.9,46.0,65,30.09,10.0,West,4.6,-,N/A,,Clear,270,2013-09-07 11:56:00
8:56 AM,62.1,45.0,53,30.09,10.0,Variable,3.5,-,N/A,,Clear,0,2013-09-07 12:56:00
9:56 AM,66.9,46.0,47,30.09,10.0,West,4.6,-,N/A,,Clear,280,2013-09-07 13:56:00
10:56 AM,70.0,45.0,41,30.08,10.0,NW,10.4,-,N/A,,Clear,320,2013-09-07 14:56:00
11:56 AM,72.0,45.0,38,30.06,10.0,NW,8.1,-,N/A,,Clear,320,2013-09-07 15:56:00
12:56 PM,73.9,43.0,33,30.01,10.0,West,5.8,-,N/A,,Clear,270,2013-09-07 16:56:00
1:56 PM,75.9,43.0,31,29.99,10.0,Variable,4.6,-,N/A,,Partly Cloudy,0,2013-09-07 17:56:00
2:56 PM,78.1,44.1,30,29.96,10.0,Variable,6.9,-,N/A,,Scattered Clouds,0,2013-09-07 18:56:00
3:56 PM,78.1,44.1,30,29.95,10.0,Variable,4.6,-,N/A,,Clear,0,2013-09-07 19:56:00
4:56 PM,75.9,43.0,31,29.94,10.0,West,4.6,-,N/A,,Scattered Clouds,270,2013-09-07 20:56:00
5:56 PM,73.0,51.1,46,29.93,10.0,South,9.2,-,N/A,,Mostly Cloudy,180,2013-09-07 21:56:00
6:56 PM,70.0,52.0,53,29.93,10.0,South,4.6,-,N/A,,Mostly Cloudy,180,2013-09-07 22:56:00
7:56 PM,68.0,54.0,61,29.93,10.0,South,3.5,-,N/A,,Scattered Clouds,190,2013-09-07 23:56:00
8:56 PM,66.0,55.0,68,29.93,10.0,Calm,Calm,-,N/A,,Scattered Clouds,0,2013-09-08 00:56:00
9:56 PM,64.9,55.9,73,29.92,10.0,South,3.5,-,N/A,,Mostly Cloudy,180,2013-09-08 01:56:00
10:56 PM,64.9,57.0,75,29.91,10.0,Calm,Calm,-,0.00,Rain,Light Rain,0,2013-09-08 02:56:00
11:56 PM,66.0,55.9,70,29.89,10.0,South,3.5,-,0.00,,Mostly Cloudy,190,2013-09-08 03:56:00